Flag for Germany Weather past 2 weeks in Pirmasens, Rhineland-Palatinate, Germany

Now
32 °F

Passing clouds.


Feels Like: 32 °F
Forecast: 46 / 49 °F
Wind: 2 mph from Southeast

Location: Ramstein

Current Time: Mar 28, 2015 at 7:14:21 AM

Latest Report: Mar 28, 2015 at 5:58 AM


Visibility: N/A

Pressure: 30.23 "Hg

Humidity: 95%

Dew point: 31 °F

Location of PirmasensLocation

Historic Weather in Pirmasens — Graph

°F

Pirmasens temperature yesterday

Maximum temperature yesterday: 52 °F (at 3:47 PM)
Minimum temperature yesterday: 38 °F (at 4:58 AM)
Average temperature yesterday: 45 °F

Past Weeks' High & Low Weather Summary

 TemperatureHumidityPressure
High65 °F (Mar 18, 3:58 PM)100% (Mar 13, 5:58 AM)30.32 "Hg (Mar 13, 5:58 AM)
Low23 °F (Mar 14, 3:58 AM)30% (Mar 18, 5:58 PM)29.63 "Hg (Mar 25, 7:02 AM)
Average41 °F79%30.10 "Hg
* Reported Mar 13 5:58 AM — Mar 28 5:58 AM, Pirmasens, Weather by CustomWeather, © 2015

Note: Actual official high and low records may vary slightly from our data, if they occured in-between our weather recording intervals... More about our weather records

Advertising

Pirmasens weather history for previous 24 hours

 ConditionsComfort  
Time TempWeatherWind HumidityBarometerVisibility
5:58 AM
Sat, Mar 28
32 °FPassing clouds.2 mph100%30.23 "HgN/A
4:58 AM36 °FOvercast.No wind87%30.24 "HgN/A
3:58 AM35 °FOvercast.No wind91%30.25 "HgN/A
2:58 AM34 °FPassing clouds.No wind87%30.27 "HgN/A
1:58 AM36 °FPassing clouds.No wind87%30.27 "HgN/A
12:58 AM38 °FOvercast.2 mph76%30.26 "HgN/A
10:58 PM
Fri, Mar 27
43 °FPassing clouds.6 mph66%30.24 "HgN/A
9:58 PM46 °FOvercast.8 mph53%30.23 "HgN/A
8:58 PM43 °FOvercast.3 mph66%30.24 "HgN/A
7:58 PM44 °FPassing clouds.2 mph58%30.21 "HgN/A
6:58 PM46 °FPassing clouds.5 mph53%30.19 "HgN/A
5:58 PM49 °FPartly sunny.12 mph48%30.18 "HgN/A
4:58 PM51 °FMore clouds than sun.13 mph44%30.16 "HgN/A
3:58 PM51 °FBroken clouds.10 mph42%30.13 "HgN/A
3:47 PM52 °FPartly sunny.15 mph41%30.11 "HgN/A
2:58 PM51 °FPassing clouds.16 mph45%30.12 "HgN/A
1:58 PM50 °FPartly sunny.13 mph49%30.12 "HgN/A
12:58 PM49 °FPartly sunny.17 mph50%30.12 "HgN/A
11:58 AM51 °FScattered clouds.17 mph50%30.10 "HgN/A
10:58 AM47 °FScattered clouds.15 mph60%30.10 "HgN/A
9:58 AM46 °FScattered clouds.10 mph65%30.09 "HgN/A
8:58 AM43 °FMostly cloudy.13 mph80%30.08 "HgN/A
7:58 AM42 °FSunny.13 mph89%30.04 "HgN/A
Weather by CustomWeather, © 2015

See weather overviewHow to use our weather pages